Theta_e
314 313 312 311 311 310 311 311 312 314 315 316 317 319 321 320 318 317 316 315 315 315 315 315 315 317 309 300 299 314 322 319 309 307 304 299 298 297 293 295 295 292 293 295 295 293 292
311 312 313 313 312 310 310 311 310 312 313 314 315 317 318 320 319 318 317 316 315 315 315 315 315 317 302 293 308 314 312 310 308 304 303 301 297 299 295 293 292 294 294 293 294 293 293
310 310 311 312 314 312 310 310 310 310 310 312 313 314 316 321 319 318 318 317 316 316 315 315 315 311 300 297 305 307 309 306 306 304 300 303 301 296 296 293 297 295 291 292 293 292 293
310 309 309 310 311 313 312 310 310 310 309 310 311 312 314 316 319 318 318 318 317 316 315 315 315 305 293 305 303 305 305 305 306 307 304 304 303 299 297 297 294 290 289 284 290 292 292
308 309 309 309 309 310 311 312 310 310 309 309 310 311 312 315 319 318 318 317 316 316 315 315 303 299 293 308 301 304 305 303 304 305 304 305 302 295 295 289 286 287 281 284 288 292 291
308 308 308 309 308 309 310 311 312 309 309 309 309 310 311 313 315 318 317 317 315 313 311 310 305 294 297 295 300 303 304 305 301 301 299 299 295 288 288 285 279 282 282 284 284 289 289
307 307 307 308 309 308 309 310 310 311 309 309 308 308 310 311 313 318 315 308 302 299 302 293 293 294 297 301 304 301 303 302 301 297 289 294 288 284 287 288 287 286 284 282 285 289 286
307 307 307 307 307 308 308 310 309 310 311 310 309 307 309 310 312 317 311 303 304 305 296 300 299 297 300 301 296 299 304 295 294 289 292 288 285 290 292 291 289 286 284 284 286 289 286
306 306 306 306 307 307 308 308 308 308 310 310 309 307 308 308 310 311 308 306 306 307 298 298 300 298 297 299 295 295 299 296 292 289 289 286 288 292 290 288 287 286 284 284 285 287 287
304 305 305 305 305 306 306 307 307 307 308 309 309 308 307 308 304 311 306 306 308 310 291 292 294 296 298 299 293 301 301 295 291 288 289 288 291 289 287 287 288 283 288 287 286 283 280
303 304 304 304 304 305 305 305 306 306 307 308 309 308 306 307 303 302 307 308 310 306 278 294 293 301 299 294 294 295 300 295 289 289 289 286 286 286 286 286 288 285 288 287 286 283 281
302 303 303 303 303 304 304 304 305 305 306 307 308 308 306 302 303 304 309 310 306 287 278 289 292 290 290 294 293 295 295 295 294 289 288 286 291 289 288 289 288 290 289 289 287 283 273
302 301 302 302 302 302 303 303 303 304 305 306 307 307 305 303 296 307 309 304 286 280 291 286 286 289 289 289 289 291 289 287 284 280 280 285 286 288 290 286 289 288 283 273 272 269 273
301 301 301 301 301 302 302 302 302 303 304 305 306 306 304 301 302 304 304 293 280 285 284 291 290 289 285 289 289 290 287 284 288 287 279 278 275 285 289 286 284 285 284 276 272 273 277
300 300 300 300 300 301 301 302 302 302 303 303 305 301 299 299 302 303 292 283 284 286 290 288 289 284 285 288 288 287 286 285 287 288 283 280 281 287 288 288 287 284 281 286 278 273 275
299 299 299 300 299 299 300 300 302 302 302 303 296 296 296 300 301 296 286 283 285 292 293 291 283 287 282 284 284 286 284 289 288 290 294 288 280 283 286 288 287 284 287 279 278 272 272
299 298 299 298 298 299 300 300 300 301 301 302 294 288 296 301 300 289 278 282 288 295 293 289 287 286 287 285 286 284 284 289 292 290 294 289 286 280 283 281 282 282 280 283 283 281 276
298 298 298 298 297 299 299 300 300 300 301 299 291 282 296 300 285 284 279 284 291 291 295 292 291 290 287 287 286 286 286 289 294 292 288 292 286 279 280 285 286 284 283 284 279 276 279
298 297 298 298 298 298 299 299 299 300 301 294 285 286 296 296 280 279 281 287 290 288 292 290 289 291 292 288 285 288 290 291 291 291 289 291 284 277 279 282 282 281 284 286 287 283 277
298 297 297 298 298 298 298 298 299 299 301 295 284 279 287 290 287 281 279 281 285 292 291 292 291 290 289 286 290 287 285 288 290 290 293 293 283 282 280 281 282 279 282 285 285 279 280
297 297 297 297 297 297 297 297 298 297 301 293 284 281 284 280 282 282 282 282 282 285 292 292 289 288 288 284 283 284 285 286 289 291 289 288 279 277 279 282 283 282 282 283 279 284 281
296 296 296 296 297 297 297 298 299 300 300 290 283 282 286 284 284 281 282 280 282 284 289 287 287 289 290 284 287 283 284 285 284 288 287 288 278 279 276 279 281 280 282 283 280 279 278
296 296 296 296 296 297 297 298 298 299 298 286 286 288 287 284 283 280 280 281 286 288 290 292 291 289 288 290 291 291 291 291 289 287 286 285 280 279 276 275 276 275 279 281 282 283 285
295 296 296 295 296 297 297 298 298 298 298 289 287 288 284 279 282 281 282 285 286 290 288 292 293 290 292 296 295 294 292 290 290 289 290 284 282 281 272 273 268 281 285 285 283 285 286
295 295 295 295 295 296 297 297 297 298 298 290 291 288 284 280 283 283 283 284 285 289 290 291 294 296 298 292 285 283 283 283 284 286 288 289 284 279 274 270 278 281 283 283 283 283 287
295 295 295 294 295 296 296 297 297 298 298 293 291 291 286 280 282 286 284 285 283 284 286 288 293 298 296 289 284 279 277 280 279 281 288 288 287 281 277 269 269 280 285 288 288 280 289
293 293 294 294 295 295 296 297 297 297 298 292 290 292 287 281 285 287 284 283 287 286 285 286 288 291 293 284 281 279 278 280 278 279 280 282 280 277 271 268 276 285 286 288 278 281 288
293 293 293 294 294 295 296 297 297 297 297 291 289 293 288 283 286 286 290 286 286 288 284 283 287 286 284 283 278 273 270 275 279 282 283 281 278 276 273 269 272 287 285 283 286 288 290
294 294 294 294 294 295 296 296 297 298 296 293 287 293 294 285 285 289 288 290 290 292 288 289 286 287 287 283 280 276 268 271 274 277 283 276 281 279 281 280 287 289 287 289 291 290 290
Wind_Speed
17 16 15 14 13 13 12 14 14 14 13 13 15 15 11 10 11 9 8 7 7 6 6 5 5 6 3 2 8 4 8 6 4 5 4 4 4 3 4 5 4 5 5 4 6 3 5
20 18 18 17 14 13 13 12 13 14 14 14 12 16 17 12 12 10 9 7 7 6 6 6 4 4 1 4 3 7 7 5 3 3 4 5 4 3 3 3 4 0 3 7 7 5 3
21 22 21 17 19 15 14 14 13 12 13 15 14 13 17 12 12 10 8 8 6 6 5 6 6 2 3 11 3 7 7 5 3 3 3 3 2 1 2 1 3 1 4 7 6 5 5
21 21 21 22 20 18 17 15 14 13 13 13 13 12 15 20 13 11 9 7 5 4 5 6 5 3 7 1 1 7 5 2 3 4 2 4 3 1 1 1 1 2 2 3 1 4 1
26 22 21 21 23 19 18 18 15 14 13 13 13 12 12 11 12 11 11 7 5 4 5 5 1 2 8 1 4 5 5 5 3 1 1 3 2 3 2 2 3 1 3 4 2 4 3
25 25 25 21 22 23 20 18 19 15 13 12 12 11 12 12 15 15 11 9 4 2 3 4 5 1 4 6 4 6 5 7 3 5 3 2 2 3 1 4 6 6 4 5 4 4 3
29 27 26 25 23 22 21 19 18 19 15 13 13 13 12 12 12 16 14 4 5 1 4 9 6 4 4 3 4 2 4 6 5 2 5 4 4 10 13 10 5 4 2 2 0 2 3
28 29 28 27 26 24 23 21 20 19 20 15 13 13 11 12 13 10 9 5 4 9 5 15 13 9 3 4 4 6 6 7 7 6 6 4 10 9 9 7 7 4 2 4 3 3 1
32 30 30 27 27 26 22 24 20 21 20 18 14 12 11 10 13 9 13 9 5 2 2 5 5 9 5 5 6 13 12 6 5 7 9 8 4 11 7 6 8 5 5 4 3 2 3
32 33 31 30 29 27 26 23 21 19 18 16 17 13 11 7 5 3 10 13 6 1 3 6 7 8 9 4 6 8 10 5 6 10 7 5 4 6 5 5 5 4 4 5 3 3 4
32 32 29 28 28 26 25 24 20 19 18 16 19 16 14 12 4 3 7 13 11 4 7 4 7 1 7 9 8 4 1 1 7 8 9 8 6 6 4 4 6 5 1 6 3 3 3
29 31 30 27 25 27 24 23 24 21 19 18 16 19 16 6 3 5 11 15 5 9 9 5 4 7 9 3 2 3 5 1 3 4 5 2 2 0 4 3 4 7 6 9 6 4 2
32 31 29 27 27 26 28 23 22 24 21 19 18 21 16 5 4 3 7 9 10 14 5 8 8 10 13 13 6 5 13 8 9 7 5 2 1 0 2 7 6 4 6 4 5 4 7
30 30 29 28 26 28 26 27 24 23 24 20 19 20 17 9 7 4 9 10 11 9 10 5 9 12 12 10 4 6 13 12 9 3 6 8 3 9 4 5 8 6 6 7 9 5 4
31 28 30 29 27 28 27 28 26 23 24 21 19 10 8 9 6 4 4 13 14 10 13 13 10 6 6 9 9 10 9 9 10 10 8 7 3 3 4 2 4 7 5 5 7 2 4
29 31 30 30 31 28 30 28 26 23 24 23 7 9 12 13 10 4 8 18 6 4 8 10 10 7 14 21 9 16 17 16 8 14 2 5 5 3 2 1 1 2 3 4 3 4 3
29 31 31 29 25 30 30 30 28 25 25 24 6 7 5 17 12 8 16 10 13 5 4 13 7 8 8 14 13 11 14 6 18 14 7 5 5 3 1 6 8 3 2 2 4 4 6
27 28 32 22 30 29 29 30 30 27 27 21 7 11 8 17 13 8 15 18 9 19 5 3 5 6 12 16 14 11 13 5 15 15 17 7 5 4 6 2 1 0 5 5 6 5 1
27 28 30 26 26 30 30 31 31 28 31 10 6 4 9 18 13 10 12 10 11 18 12 9 6 5 6 13 9 11 7 4 8 16 23 12 5 5 3 4 3 4 5 4 4 3 6
32 26 26 26 25 24 25 28 29 25 32 12 5 8 7 12 8 16 20 23 13 9 15 8 7 3 6 12 4 13 6 1 3 5 7 6 5 6 10 6 9 7 8 7 5 4 5
28 26 26 25 22 23 23 27 27 30 35 11 8 6 7 10 14 19 23 23 28 13 13 22 13 8 8 6 4 6 6 4 5 6 4 5 5 4 3 3 5 5 9 17 11 11 8
26 25 24 22 21 23 24 30 31 31 29 11 6 5 4 4 20 23 28 25 30 30 15 13 17 23 21 10 12 16 10 6 8 3 6 3 3 4 3 4 4 3 4 10 6 3 2
29 26 22 24 23 23 24 26 27 27 25 5 4 3 3 10 16 16 19 27 26 25 24 16 27 19 17 14 7 11 3 8 12 14 6 7 7 4 2 2 2 5 10 9 6 5 12
29 26 24 23 21 23 24 25 26 27 26 2 3 2 2 9 16 19 20 24 24 22 18 25 18 20 10 13 14 11 12 8 5 6 7 8 7 2 3 2 2 6 2 9 7 8 8
18 22 22 21 22 24 24 26 25 25 26 5 4 3 3 4 16 20 26 23 21 18 11 18 15 10 20 9 7 7 3 3 4 5 5 5 8 5 6 4 4 1 5 9 10 9 13
17 24 22 21 20 22 26 26 25 24 26 9 5 3 3 1 12 26 26 21 18 15 21 4 4 22 13 5 5 6 7 6 7 4 4 8 5 6 4 7 10 6 5 7 5 6 8
17 18 20 18 20 22 26 26 24 24 24 10 3 6 4 2 7 11 17 18 13 15 10 5 6 15 10 4 4 4 4 4 10 14 11 8 3 7 4 3 7 6 7 6 8 7 3
23 23 22 22 23 23 25 24 24 22 22 8 4 9 6 3 7 8 5 9 8 14 16 5 6 1 3 8 4 4 5 6 5 6 11 9 9 5 4 4 8 8 3 12 6 2 6
29 31 30 28 25 23 24 24 23 22 26 9 4 6 3 2 3 3 8 5 3 13 9 7 5 5 5 5 2 5 4 3 7 9 4 3 7 8 9 8 2 11 4 5 5 7 5
Wind_Direction
306 295 298 297 300 298 304 305 313 324 331 335 347 335 229 228 231 238 242 245 262 272 288 299 314 327 344 253 256 162 138 139 140 141 174 184 157 182 205 203 189 186 262 292 311 263 240
304 303 300 290 282 283 289 289 300 299 315 329 340 357 335 215 224 223 238 237 249 262 279 293 303 331 255 249 108 143 148 145 204 180 200 180 191 189 278 288 149 295 298 283 277 262 237
295 294 299 302 293 269 276 278 286 296 293 311 331 340 332 231 216 215 221 238 241 257 273 289 297 242 274 241 160 158 154 186 183 194 169 240 122 172 197 298 335 359 314 296 251 224 219
285 283 290 292 295 289 268 266 278 280 289 290 313 319 329 340 204 207 199 207 222 251 272 277 288 254 243 294 285 149 199 131 177 227 229 207 57 110 90 229 352 267 171 331 215 145 152
289 286 279 280 287 289 290 267 260 268 272 277 289 312 319 306 222 194 205 183 188 226 248 273 208 211 261 10 167 197 164 157 154 230 48 102 92 160 73 109 17 266 233 198 251 213 120
286 286 285 275 273 282 282 290 264 256 261 269 277 291 306 322 340 187 181 159 153 257 228 222 269 332 210 218 175 162 176 155 140 123 73 129 114 122 96 132 206 188 218 250 224 204 181
270 272 275 279 277 273 277 277 285 261 251 253 270 275 296 311 308 191 156 125 140 84 244 201 183 244 110 77 71 163 162 144 109 148 158 212 139 205 198 193 152 99 169 307 94 248 240
274 271 270 267 265 268 269 269 270 279 255 239 244 260 276 301 310 226 159 223 217 141 235 239 241 255 151 206 130 195 149 152 153 180 143 88 230 209 195 205 227 261 201 255 283 178 227
275 268 268 266 264 263 261 266 263 266 277 241 228 238 258 280 316 269 184 201 115 144 203 265 184 206 187 178 209 188 159 175 155 174 179 170 231 185 189 185 185 194 176 207 214 314 270
277 274 272 267 266 260 260 256 262 266 262 266 232 217 230 266 306 220 200 144 163 317 269 234 216 224 158 189 241 161 184 150 187 189 162 243 247 144 153 192 138 178 213 185 131 72 234
275 273 267 268 266 262 260 257 252 255 261 259 238 212 220 207 324 254 139 146 139 71 248 138 154 71 148 175 129 224 153 90 170 170 133 230 176 152 139 185 153 210 47 136 119 140 43
270 265 266 265 260 266 258 257 255 248 249 254 251 213 207 234 214 237 176 145 97 213 231 166 138 175 150 172 85 131 144 9 141 111 62 141 268 142 138 88 140 146 73 40 48 72 16
271 268 258 261 260 244 265 249 255 254 243 247 246 222 194 178 209 190 187 169 190 204 143 190 196 169 178 168 160 198 169 176 159 121 174 107 190 134 150 85 18 87 91 17 2 8 219
266 259 256 259 251 252 242 254 247 250 254 241 246 235 212 198 219 131 202 194 238 158 192 164 154 148 169 156 188 191 160 187 239 127 125 149 247 176 195 174 172 171 159 158 197 193 231
268 257 261 253 253 254 245 251 242 237 242 248 242 239 206 203 166 161 239 225 187 187 171 147 117 116 176 195 150 167 205 204 206 183 150 142 189 355 46 43 129 185 178 171 104 37 67
262 261 257 254 254 242 248 239 242 232 230 238 229 232 224 168 163 158 242 247 200 220 146 153 156 183 164 186 156 188 175 196 209 195 125 172 98 336 7 216 43 150 172 100 343 140 226
258 259 256 260 244 250 237 238 240 231 226 224 207 235 191 172 159 198 221 226 209 253 162 166 202 154 175 170 179 192 192 213 189 182 113 116 103 291 48 208 177 149 176 214 125 152 164
263 260 263 241 255 235 241 237 232 229 224 214 214 227 178 163 189 181 199 211 236 216 235 202 152 155 181 168 174 182 206 211 193 151 178 177 99 155 203 256 359 14 195 171 137 241 242
259 246 252 253 245 241 232 236 233 222 218 197 198 219 195 176 202 183 186 200 224 210 213 182 223 193 166 164 168 171 180 219 173 166 165 167 171 110 35 340 358 211 207 204 125 86 194
268 250 246 242 238 238 232 228 237 227 217 194 159 193 221 193 185 178 188 204 209 232 198 199 223 214 129 162 132 170 135 291 133 119 133 116 145 173 197 179 143 182 194 190 142 141 176
266 249 245 244 234 235 233 235 224 225 224 186 183 215 235 175 188 189 193 204 201 213 221 188 184 197 147 139 80 140 136 134 22 130 97 148 138 102 344 35 122 150 175 183 187 191 175
249 243 248 245 234 225 217 228 209 210 208 219 173 176 195 156 193 191 190 209 204 202 197 204 203 185 184 153 179 184 139 161 165 211 146 161 129 116 13 0 53 128 203 198 196 169 103
254 239 242 237 232 230 219 218 211 208 201 186 180 197 200 208 186 198 205 194 199 196 209 197 204 192 201 202 138 156 144 169 157 156 150 132 131 121 214 351 55 323 203 180 174 191 197
243 231 226 239 232 221 219 220 214 208 199 138 203 162 169 199 192 193 203 200 183 179 204 201 189 183 151 109 90 64 63 64 99 89 121 126 103 75 151 41 181 252 241 181 159 205 194
224 227 233 229 226 222 216 218 219 211 206 153 189 193 176 258 193 180 204 203 211 198 210 175 186 168 134 80 97 126 128 100 348 29 111 148 119 124 138 195 282 246 175 153 169 240 199
232 226 232 230 223 223 223 221 215 210 213 196 173 102 99 257 208 185 191 190 195 205 203 206 187 145 130 127 151 148 159 138 154 124 3 133 93 122 150 141 207 229 213 158 121 270 185
256 247 245 243 219 224 220 215 209 212 197 186 149 141 123 176 260 219 181 187 179 196 197 143 192 148 151 145 128 131 120 138 156 164 164 142 106 164 168 165 280 237 159 144 124 237 141
264 248 243 237 220 221 214 210 208 206 167 157 136 165 146 180 288 290 162 146 149 192 193 185 147 193 124 166 123 171 121 194 123 154 167 158 149 175 105 107 255 165 85 165 196 96 122
259 240 227 226 220 214 208 197 198 193 150 136 131 150 130 176 273 282 72 67 121 179 154 187 158 133 163 107 95 104 80 117 146 173 207 185 171 161 172 200 220 177 185 197 145 137 146